Location: Kershaw
(34.5481°N, 80.5823°W)
Time: 20:50:25
(UTC+00:00)

Vanguard 2 Rocket - Pass Details

Date: 02 October 2022
Orbit: 555 x 3321 km, 32.9° (Epoch: 28 November)

Event Time Altitude Azimuth Distance (km) Brightness Sun altitude
Rises 00:15:31 0° 195° (SSW) 7,296 11.6 -15.1°
Reaches altitude 10° 00:23:08 10° 180° (S) 6,170 11.0 -16.6°
Maximum altitude 00:34:10 19° 144° (SE) 4,987 10.2 -18.9°
Enters shadow 00:38:00 17° 128° (SE) 4,854 10.1 -19.7°
